Weather History for KEBG - October, 2013

Change the Weather History Date:

Tuesday, October 29, 2013

  Actual Average (KMFE) Record (KMFE)
Temperature  
Mean Temperature 83 °F 74 °F  
Max Temperature 92 °F 85 °F 94 °F (2004)
Min Temperature 74 °F 64 °F 47 °F (1976)
Degree Days  
Heating Degree Days 0 0  
Month to date heating degree days 0  
Since 1 July heating degree days 0  
Cooling Degree Days 18 10  
Month to date cooling degree days 364  
Year to date cooling degree days 4163  
Growing Degree Days 33 (Base 50)    
Moisture  
Dew Point 69 °F    
Average Humidity 65    
Maximum Humidity 88    
Minimum Humidity 40    
Precipitation  
Precipitation 0.00 in 0.05 in 1.67 in (1976)
Month to date precipitation 1.97  
Year to date precipitation 20.01  
Sea Level Pressure  
Sea Level Pressure 30.00 in    
Wind  
Wind Speed 10 mph (SE)    
Max Wind Speed 18 mph    
Max Gust Speed 25 mph    
Visibility 8 miles    
Events      
T = Trace of Precipitation, MM = Missing Value Source: NWS Daily Summary

Daily Weather History Graph

Daily Weather History Graph

Search for Another Location

Airport or City:

Trip Planner

Search our weather history database for the weather conditions in past years. The results will help you decide how hot, cold, wet, or windy it might be!

Date:

Astronomy

Oct. 29, 2013 Rise Set
Actual Time 7:39 AM CDT 6:52 PM CDT
Civil Twilight 7:16 AM CDT 7:15 PM CDT
Nautical Twilight 6:48 AM CDT 7:43 PM CDT
Astronomical Twilight 6:21 AM CDT 8:10 PM CDT
Moon 2:59 AM CDT (10/29) 3:42 PM CDT (10/29)
Length of Visible Light 11h 59m
Length of Day
11h 12m
Waning Crescent, 25% of the Moon is Illuminated
Oct 29
Waning Crescent
Nov 3
New
Nov 9
First Quarter
Nov 17
Full
Nov 25
Last Quarter

Hourly Weather History & Observations

Time (CDT) Temp. Heat Index Dew Point Humidity Pressure Visibility Wind Dir Wind Speed Gust Speed Precip Events Conditions
12:15 AM 78.1 °F - 71.2 °F 79% 30.04 in 7.0 mi SE 6.9 mph - N/A   Overcast
12:35 AM 77.0 °F - 70.9 °F 81% 30.04 in 7.0 mi SE 6.9 mph - N/A   Scattered Clouds
12:55 AM 76.6 °F - 71.1 °F 83% 30.03 in 7.0 mi SE 4.6 mph - N/A   Clear
1:15 AM 76.1 °F - 70.7 °F 83% 30.03 in 7.0 mi SE 5.8 mph - N/A   Clear
1:35 AM 76.5 °F - 71.4 °F 84% 30.03 in 7.0 mi SE 5.8 mph - N/A   Mostly Cloudy
2:15 AM 77.0 °F - 71.6 °F 83% 30.02 in 7.0 mi SE 8.1 mph - N/A   Scattered Clouds
2:35 AM 77.0 °F - 71.6 °F 83% 30.02 in 7.0 mi SE 8.1 mph - N/A   Scattered Clouds
2:55 AM 77.0 °F - 71.8 °F 84% 30.02 in 7.0 mi SE 8.1 mph - N/A   Clear
3:15 AM 77.0 °F - 71.8 °F 84% 30.01 in 7.0 mi SE 5.8 mph - N/A   Clear
3:35 AM 77.0 °F - 71.8 °F 84% 30.01 in 7.0 mi SE 6.9 mph - N/A   Clear
3:55 AM 77.0 °F - 71.8 °F 84% 30.01 in 7.0 mi SE 8.1 mph - N/A   Clear
4:15 AM 76.6 °F - 71.6 °F 84% 30.01 in 7.0 mi SE 6.9 mph - N/A   Scattered Clouds
4:35 AM 76.3 °F - 71.4 °F 85% 30.01 in 7.0 mi SE 5.8 mph - N/A   Clear
5:15 AM 75.9 °F - 71.2 °F 85% 30.00 in 7.0 mi SE 6.9 mph - N/A   Clear
6:15 AM 74.5 °F - 70.5 °F 87% 30.02 in 7.0 mi SE 4.6 mph - N/A   Clear
7:15 AM 74.3 °F - 70.7 °F 88% 30.02 in 7.0 mi SE 4.6 mph - N/A   Clear
8:15 AM 74.5 °F - 70.9 °F 88% 30.02 in 4.0 mi ESE 5.8 mph - N/A   Clear
8:55 AM 76.8 °F - 72.3 °F 86% 30.04 in 4.0 mi ESE 6.9 mph - N/A   Haze
9:35 AM 80.8 °F 85.1 °F 72.3 °F 75% 30.05 in 5.0 mi SE 11.5 mph - N/A   Haze
9:55 AM 81.5 °F 86.1 °F 72.0 °F 73% 30.05 in 7.0 mi SE 11.5 mph 17.3 mph N/A   Mostly Cloudy
10:15 AM 82.6 °F 87.3 °F 71.6 °F 69% 30.05 in 7.0 mi SSE 12.7 mph 20.7 mph N/A   Mostly Cloudy
10:35 AM 83.3 °F 88.2 °F 71.4 °F 67% 30.06 in 7.0 mi SSE 12.7 mph 16.1 mph N/A   Mostly Cloudy
10:55 AM 84.4 °F 89.7 °F 71.2 °F 65% 30.06 in 7.0 mi SSE 13.8 mph 18.4 mph N/A   Mostly Cloudy
11:15 AM 84.2 °F 89.3 °F 71.1 °F 65% 30.06 in 7.0 mi SSE 13.8 mph 18.4 mph N/A   Mostly Cloudy
11:35 AM 86.5 °F 91.8 °F 70.7 °F 59% 30.06 in 7.0 mi SE 16.1 mph - N/A   Mostly Cloudy
11:55 AM 88.0 °F 92.9 °F 69.8 °F 55% 30.05 in 7.0 mi SSE 13.8 mph 19.6 mph N/A   Mostly Cloudy
12:15 PM 88.0 °F 92.5 °F 69.3 °F 54% 30.04 in 7.0 mi SSE 17.3 mph - N/A   Mostly Cloudy
12:35 PM 89.1 °F 92.5 °F 67.8 °F 49% 30.03 in 7.0 mi South 13.8 mph 21.9 mph N/A   Scattered Clouds
12:55 PM 90.7 °F 94.5 °F 68.0 °F 47% 30.02 in 7.0 mi SSE 12.7 mph 23.0 mph N/A   Scattered Clouds
1:15 PM 91.2 °F 95.0 °F 67.8 °F 46% 30.00 in 7.0 mi SE 16.1 mph 21.9 mph N/A   Clear
1:35 PM 91.6 °F 94.8 °F 67.1 °F 44% 29.99 in 7.0 mi SE 15.0 mph 20.7 mph N/A   Scattered Clouds
1:55 PM 92.5 °F 95.4 °F 66.0 °F 42% 29.98 in 5.0 mi South 16.1 mph 19.6 mph N/A   Haze
2:15 PM 91.6 °F 93.9 °F 65.8 °F 42% 29.97 in 7.0 mi South 13.8 mph 23.0 mph N/A   Scattered Clouds
2:35 PM 92.3 °F 94.7 °F 65.7 °F 41% 29.96 in 7.0 mi SSE 13.8 mph 25.3 mph N/A   Scattered Clouds
2:55 PM 90.7 °F 92.4 °F 64.9 °F 42% 29.95 in 7.0 mi SSE 18.4 mph 23.0 mph N/A   Scattered Clouds
3:15 PM 91.8 °F 93.4 °F 64.6 °F 40% 29.94 in 7.0 mi SE 18.4 mph 24.2 mph N/A   Scattered Clouds
3:35 PM 90.7 °F 92.1 °F 63.9 °F 41% 29.94 in 10.0 mi SE 18.4 mph 21.9 mph N/A   Scattered Clouds
3:55 PM 91.2 °F 93.7 °F 65.7 °F 43% 29.94 in 7.0 mi SSE 13.8 mph 24.2 mph N/A   Scattered Clouds
4:15 PM 90.9 °F 93.1 °F 65.3 °F 43% 29.94 in 10.0 mi SSE 15.0 mph 21.9 mph N/A   Scattered Clouds
4:35 PM 91.4 °F 92.8 °F 64.2 °F 40% 29.94 in 10.0 mi SSE 15.0 mph 21.9 mph N/A   Scattered Clouds
4:55 PM 91.4 °F 92.8 °F 63.9 °F 40% 29.93 in 10.0 mi SE 16.1 mph 23.0 mph N/A   Clear
5:15 PM 91.2 °F 93.3 °F 64.9 °F 42% 29.93 in 7.0 mi SE 15.0 mph 21.9 mph N/A   Scattered Clouds
5:35 PM 89.6 °F 91.8 °F 65.7 °F 45% - 10.0 mi SE 16.1 mph 20.7 mph N/A   Scattered Clouds
5:55 PM 89.2 °F 90.6 °F 64.0 °F 43% 29.94 in 10.0 mi SE 16.1 mph 21.9 mph N/A   Clear
6:15 PM 88.2 °F 90.3 °F 65.3 °F 47% 29.94 in 7.0 mi SE 16.1 mph 19.6 mph N/A   Clear
6:35 PM 86.5 °F 89.0 °F 66.6 °F 51% 29.94 in 10.0 mi SE 13.8 mph - N/A   Clear
6:55 PM 85.5 °F 87.9 °F 66.6 °F 53% 29.94 in 7.0 mi SE 15.0 mph - N/A   Clear
7:15 PM 84.4 °F 87.3 °F 67.6 °F 57% 29.95 in 10.0 mi SE 13.8 mph 17.3 mph N/A   Clear
7:35 PM 83.5 °F 86.7 °F 68.2 °F 60% 29.97 in 10.0 mi SE 9.2 mph - N/A   Clear
7:55 PM 82.8 °F 86.2 °F 69.1 °F 63% 29.97 in 10.0 mi SE 9.2 mph - N/A   Clear
8:15 PM 82.4 °F 85.8 °F 68.9 °F 64% 29.98 in 10.0 mi SE 12.7 mph - N/A   Clear
8:35 PM 81.5 °F 84.8 °F 69.3 °F 66% 29.98 in 10.0 mi SE 9.2 mph - N/A   Clear
8:55 PM 81.5 °F 84.9 °F 69.6 °F 67% 29.98 in 10.0 mi ESE 10.4 mph - N/A   Clear
9:15 PM 80.6 °F 83.9 °F 69.8 °F 70% 29.99 in 10.0 mi ESE 8.1 mph - N/A   Clear
9:35 PM 80.1 °F 83.4 °F 70.7 °F 73% 29.99 in 10.0 mi ESE 6.9 mph - N/A   Clear
9:55 PM 79.9 °F - 71.8 °F 76% 30.00 in 10.0 mi ESE 6.9 mph - N/A   Clear
10:15 PM 79.7 °F - 72.5 °F 79% 29.99 in 10.0 mi ESE 6.9 mph - N/A   Clear
10:35 PM 79.7 °F - 72.9 °F 80% 29.99 in 10.0 mi ESE 9.2 mph - N/A   Scattered Clouds
10:55 PM 79.3 °F - 73.0 °F 81% 29.99 in 10.0 mi SE 9.2 mph - N/A   Clear
11:15 PM 79.0 °F - 73.2 °F 82% 29.99 in 10.0 mi SE 9.2 mph - N/A   Clear
11:35 PM 78.8 °F - 72.9 °F 82% 29.99 in 10.0 mi SE 9.2 mph - N/A   Clear
11:55 PM 78.8 °F - 72.5 °F 81% 29.99 in 10.0 mi SE 9.2 mph - N/A   Clear